Location: Vale
(35.4830°N, 81.3830°W)
Time: 13:58:24
(UTC-05:00)

Amateur Radio Satellites - All Passes

Search period start: 14 February 2016 13:28
Search period end: 15 February 2016 13:28
Location: Vale, 35.4830°N, 81.3830°W

Satellite Date Start Highest point End Downlink Frequencies (MHz)
Time Altitude Azimuth
ISS 14 Feb 13:30:34 13:33:40 44° 134° (SE) 13:36:47 145.825
SWISSCUBE 14 Feb 13:53:12 13:57:30 32° 97° (E) 14:01:46 437.505
DANDE 14 Feb 13:58:21 14:03:29 30° 274° (W) 14:07:30 436.750
Gurwin Techsat 1B 14 Feb 14:03:22 14:08:40 75° 258° (WSW) 14:14:00 435.225
ITAMSAT 1 14 Feb 14:11:32 14:16:40 68° 74° (ENE) 14:21:52 435.822/435.867
SO-50 14 Feb 14:17:59 14:21:33 21° 250° (WSW) 14:25:01 436.795
ITUPSAT 1 14 Feb 14:32:23 14:37:13 77° 102° (ESE) 14:42:02 437.325
Oscar 19 14 Feb 14:33:49 14:36:17 13° 268° (W) 14:38:45 437.125/150
BEESAT 14 Feb 14:37:25 14:42:14 89° 102° (ESE) 14:47:02 436.000
TISAT 1 14 Feb 14:41:57 14:43:27 12° 294° (WNW) 14:44:57 437.305
KKS-1 14 Feb 14:55:08 14:57:50 16° 94° (E) 15:00:32 437.445
AO-7 14 Feb 14:57:06 15:05:17 62° 68° (ENE) 15:13:29 29.400- 29.500
JAS-2 14 Feb 15:00:22 15:05:15 18° 267° (W) 15:09:56 435.910
ISS 14 Feb 15:07:54 15:10:15 18° 330° (NNW) 15:12:37 145.825
HORYU 2 14 Feb 15:17:08 15:20:30 22° 69° (ENE) 15:23:52 437.375
YUBILEINY 14 Feb 15:18:06 15:26:24 48° 271° (W) 15:34:39 435.215
M-CUBED/EXP-1 PRIME 14 Feb 15:19:42 15:22:54 33° 70° (ENE) 15:25:59 437.505
Cosmos 2491 14 Feb 15:20:36 15:29:19 77° 278° (W) 15:38:03 435.465 / 435.565
AUBIESAT-1 14 Feb 15:24:50 15:27:58 30° 69° (ENE) 15:31:00 437.475
MOZHAYETS 4 14 Feb 15:26:18 15:28:51 15° 93° (E) 15:31:24
BEESAT 3 14 Feb 15:30:12 15:33:53 38° 114° (ESE) 15:37:36 437.485
Cosmos 2504 14 Feb 15:31:01 15:39:07 48° 77° (ENE) 15:46:35 435.465 / 435.565
SWISSCUBE 14 Feb 15:31:20 15:35:05 23° 292° (WNW) 15:38:50 437.505
RS-15 14 Feb 15:38:52 15:44:17 14° 355° (N) 15:49:48 29.354- 29.394
ITAMSAT 1 14 Feb 15:54:40 15:56:34 12° 269° (W) 15:58:28 435.822/435.867
STARS 14 Feb 15:59:15 16:03:27 46° 100° (E) 16:07:38 437.465
BEESAT 2 14 Feb 16:03:38 16:07:34 59° 116° (ESE) 16:11:32 435.950
ITUPSAT 1 14 Feb 16:13:39 16:14:22 10° 298° (WNW) 16:15:06 437.325
KKS-1 14 Feb 16:30:25 16:34:31 38° 288° (WNW) 16:38:37 437.445
CUTE-I 14 Feb 16:31:11 16:32:57 12° 61° (ENE) 16:34:42 437.470
Cubesat XI-IV 14 Feb 16:44:57 16:48:11 16° 64° (ENE) 16:51:24 437.490
O/OREOS (USA 219) 14 Feb 16:45:19 16:49:29 33° 64° (ENE) 16:53:38 437.305
AO-7 14 Feb 16:51:48 16:58:25 26° 264° (W) 17:05:06 29.400- 29.500
HORYU 2 14 Feb 16:53:04 16:56:52 28° 263° (W) 17:00:42 437.375
M-CUBED/EXP-1 PRIME 14 Feb 16:56:35 16:57:36 11° 260° (W) 16:58:37 437.505
AUBIESAT-1 14 Feb 17:01:13 17:02:35 12° 260° (W) 17:03:56 437.475
MOZHAYETS 4 14 Feb 17:01:46 17:06:13 46° 287° (WNW) 17:10:39
BRITE-PL 14 Feb 17:01:53 17:04:27 13° 64° (ENE) 17:06:57 437.365/2234.400
AIST 2 14 Feb 17:02:59 17:06:17 23° 111° (ESE) 17:09:36 435.215
BEESAT 3 14 Feb 17:09:10 17:11:46 17° 310° (NW) 17:14:24 437.485
LilacSat-2 14 Feb 17:16:04 17:18:49 19° 70° (ENE) 17:21:33 437.200
Cosmos 2491 14 Feb 17:24:12 17:27:37 13° 297° (WNW) 17:31:03 435.465 / 435.565
Cosmos 2504 14 Feb 17:25:03 17:32:01 31° 276° (W) 17:38:36 435.465 / 435.565
STARS 14 Feb 17:37:10 17:39:24 14° 294° (WNW) 17:41:38 437.465
AO-85 14 Feb 17:39:35 17:43:43 24° 49° (NE) 17:47:35 145.980
GOMX 1 14 Feb 17:40:14 17:43:08 15° 66° (ENE) 17:45:57 467.674
BEESAT 2 14 Feb 17:44:10 17:45:49 12° 313° (NW) 17:47:28 435.950
PCSat 14 Feb 17:48:06 17:49:54 11° 45° (NE) 17:51:42 145.827
RS-15 14 Feb 17:54:24 18:03:32 24° 32° (NNE) 18:12:46 29.354- 29.394
CUBESAT XI-V 14 Feb 17:56:48 18:01:28 64° 101° (E) 18:06:04 437.345
CUTE-I 14 Feb 18:06:55 18:12:14 81° 256° (WSW) 18:17:36 437.470
Cubesat XI-IV 14 Feb 18:22:30 18:27:43 57° 259° (WSW) 18:33:00 437.490
O/OREOS (USA 219) 14 Feb 18:25:18 18:28:37 20° 259° (W) 18:31:55 437.305
DOVE 4 14 Feb 18:31:20 18:35:17 24° 70° (ENE) 18:39:04 437.250
BRITE-PL 14 Feb 18:36:35 18:42:16 78° 258° (WSW) 18:47:46 437.365/2234.400
AIST 2 14 Feb 18:41:04 18:44:39 27° 306° (NW) 18:48:14 435.215
GONETS M04 14 Feb 18:48:05 18:55:19 27° 71° (ENE) 19:02:31
CINEMA 3 14 Feb 18:49:50 18:50:38 10° 66° (ENE) 18:51:27 145.822/145.860
LilacSat-2 14 Feb 18:49:56 18:52:59 23° 264° (W) 18:56:02 437.200
SEEDS 14 Feb 19:05:24 19:07:24 13° 67° (ENE) 19:09:24 437.485
CUTE 1.7 + AOD 2 14 Feb 19:07:28 19:10:27 19° 69° (ENE) 19:13:28 437.475
STRAND 1 14 Feb 19:08:30 19:13:21 40° 99° (E) 19:18:10 437.568
HO-68 14 Feb 19:13:05 19:19:45 43° 67° (ENE) 19:26:26 435.675
GOMX 1 14 Feb 19:15:26 19:20:44 61° 260° (W) 19:25:48 467.674
AO-85 14 Feb 19:19:47 19:24:21 37° 248° (WSW) 19:28:32 145.980
PCSat 14 Feb 19:28:42 19:34:10 80° 63° (ENE) 19:39:35 145.827
CUBESAT XI-V 14 Feb 19:36:41 19:38:16 12° 296° (WNW) 19:39:49 437.345
UWE-3 14 Feb 19:46:59 19:47:11 10° 66° (ENE) 19:47:22 435.000/436.395/437.385
CANX-2 14 Feb 19:52:07 19:56:19 77° 76° (ENE) 20:00:33 2200.000
CUBEBUG 2 14 Feb 19:54:44 19:57:44 19° 69° (ENE) 20:00:42 437.445
ISS 14 Feb 20:01:10 20:03:25 17° 30° (NNE) 20:05:40 145.825
RS-15 14 Feb 20:06:21 20:18:35 73° 58° (ENE) 20:30:54 29.354- 29.394
DOVE 4 14 Feb 20:08:19 20:12:48 32° 263° (W) 20:17:06 437.250
COMPASS 1 14 Feb 20:14:30 20:18:36 65° 77° (ENE) 20:22:46 437.405
Cosmos 2499 14 Feb 20:16:23 20:24:03 42° 76° (ENE) 20:31:07 435.465 / 435.565
PRISM 14 Feb 20:21:38 20:25:48 75° 101° (ESE) 20:29:56 437.425
CINEMA 3 14 Feb 20:22:46 20:27:18 63° 259° (W) 20:31:39 145.822/145.860
ZACube-1 14 Feb 20:25:33 20:28:39 20° 70° (ENE) 20:31:44 437.345
FUNcube-1 14 Feb 20:31:31 20:34:47 23° 70° (ENE) 20:38:03 145.935
AAUSAT CUBESAT 2 14 Feb 20:37:53 20:42:00 79° 259° (WSW) 20:46:11 437.432
SEEDS 14 Feb 20:38:43 20:42:41 43° 261° (W) 20:46:43 437.485
CUTE 1.7 + AOD 2 14 Feb 20:42:24 20:46:04 29° 263° (W) 20:49:47 437.475
GONETS M04 14 Feb 20:43:58 20:52:32 58° 269° (W) 21:01:07
STRAND 1 14 Feb 20:48:24 20:52:13 21° 294° (WNW) 20:56:02 437.568
Oscar 11 14 Feb 20:55:02 20:59:15 63° 76° (ENE) 21:03:31 145.826/435.025
HO-68 14 Feb 21:01:15 21:07:29 32° 263° (W) 21:13:47 435.675
DELFI C3 14 Feb 21:09:01 21:12:48 45° 74° (ENE) 21:16:38 145.870
PCSat 14 Feb 21:15:34 21:16:47 11° 258° (WSW) 21:18:01 145.827
UWE-3 14 Feb 21:18:59 21:23:09 57° 260° (W) 21:27:16 435.000/436.395/437.385
AIST 1 14 Feb 21:25:03 21:29:21 66° 83° (E) 21:33:35
CUBEBUG 2 14 Feb 21:30:25 21:34:10 29° 263° (W) 21:37:52 437.445
HUMSAT D 14 Feb 21:32:22 21:36:02 33° 72° (ENE) 21:39:43 437.325/437.525
ISS 14 Feb 21:36:54 21:40:03 48° 225° (SW) 21:43:09 145.825
50 SAT 14 Feb 21:53:39 21:54:21 10° 66° (ENE) 21:55:02 437.505
ESTCUBE 1 14 Feb 21:56:55 21:59:24 15° 66° (ENE) 22:01:54 437.505/2401.250
ANTELSAT 14 Feb 22:00:34 22:03:51 20° 95° (E) 22:07:12 437.575/2403.000
ZACube-1 14 Feb 22:01:15 22:04:47 26° 263° (W) 22:08:17 437.345
TIGRISAT 14 Feb 22:05:24 22:08:49 22° 96° (E) 22:12:17 435.000
FUNcube-1 14 Feb 22:07:35 22:10:56 23° 264° (W) 22:14:16 145.935
Cosmos 2499 14 Feb 22:09:55 22:16:51 33° 275° (W) 22:23:21 435.465 / 435.565
PHONESAT 2.4 14 Feb 22:17:13 22:20:20 41° 151° (SSE) 22:23:27 2401.200-2431.200
RS-15 14 Feb 22:20:12 22:30:01 30° 257° (WSW) 22:39:53 29.354- 29.394
VELOX 1 14 Feb 22:30:09 22:34:00 29° 71° (ENE) 22:37:52 145.980
UKube-1 14 Feb 22:30:12 22:33:49 26° 70° (ENE) 22:37:27 .
QB50P1 14 Feb 22:41:45 22:43:17 12° 93° (E) 22:44:49 145.935-145.965
DELFI C3 14 Feb 22:47:00 22:47:56 11° 268° (W) 22:48:53 145.870
AISAT 14 Feb 22:47:20 22:51:38 49° 74° (ENE) 22:55:56 437.250
CUBEBUG 1 14 Feb 22:50:59 22:55:10 42° 73° (ENE) 22:59:20 437.445
UNISAT 6 14 Feb 22:51:19 22:55:44 81° 101° (E) 23:00:15 437.425
DX 1 14 Feb 22:51:24 22:55:41 57° 74° (ENE) 23:00:00 434.975-435.025
HUMSAT D 14 Feb 23:09:22 23:11:46 15° 266° (W) 23:14:10 437.325/437.525
50 SAT 14 Feb 23:24:24 23:27:55 42° 261° (W) 23:31:28 437.505
ESTCUBE 1 14 Feb 23:31:26 23:35:47 47° 261° (W) 23:40:11 437.505/2401.250
POLYITAN 1 14 Feb 23:34:24 23:38:32 55° 101° (E) 23:42:40 437.675
QB50P2 14 Feb 23:34:45 23:38:55 57° 101° (E) 23:43:04 145.880/145.840
ANTELSAT 14 Feb 23:36:42 23:40:34 30° 288° (WNW) 23:44:29 437.575/2403.000
TIGRISAT 14 Feb 23:41:43 23:45:28 28° 289° (WNW) 23:49:16 435.000
BEESAT 3 14 Feb 23:52:45 23:53:36 11° 46° (NE) 23:54:27 437.485
TISAT 1 14 Feb 23:53:22 23:56:49 25° 70° (ENE) 00:00:17 437.305
PHONESAT 2.4 14 Feb 23:54:23 23:57:34 45° 346° (NNW) 00:00:45 2401.200-2431.200
CUSAT 1 14 Feb 23:58:04 00:03:41 21° 85° (E) 00:09:13 437.405
DUCHIFAT 1 15 Feb 00:03:00 00:07:11 72° 284° (WNW) 00:11:21 145.980
POPSAT HIP 1 15 Feb 00:03:01 00:07:12 67° 284° (WNW) 00:11:22 437.405
NANOSAT C BR1 15 Feb 00:04:09 00:08:19 66° 285° (WNW) 00:12:28 145.865
SPROUT 15 Feb 00:04:54 00:09:12 78° 258° (WSW) 00:13:29 437.525
UKube-1 15 Feb 00:06:24 00:09:48 22° 264° (W) 00:13:13 .
VELOX 1 15 Feb 00:07:03 00:10:27 21° 265° (W) 00:13:52 145.980
QB50P1 15 Feb 00:15:15 00:19:17 46° 286° (WNW) 00:23:18 145.935-145.965
BEESAT 2 15 Feb 00:25:51 00:28:15 15° 49° (NE) 00:30:38 435.950
AISAT 15 Feb 00:26:24 00:28:21 13° 267° (W) 00:30:19 437.250
CUBEBUG 1 15 Feb 00:29:08 00:31:37 15° 267° (W) 00:34:05 437.445
DX 1 15 Feb 00:31:22 00:32:11 10° 268° (W) 00:32:58 434.975-435.025
BUGSAT 1 15 Feb 00:40:49 00:44:42 48° 286° (WNW) 00:48:33 437.445
SWISSCUBE 15 Feb 00:57:00 01:00:57 27° 69° (ENE) 01:04:56 437.505
Oscar 19 15 Feb 01:06:43 01:11:01 27° 96° (E) 01:15:17 437.125/150
POLYITAN 1 15 Feb 01:12:44 01:13:51 11° 295° (WNW) 01:14:57 437.675
QB50P2 15 Feb 01:13:25 01:14:12 10° 295° (WNW) 01:15:00 145.880/145.840
DANDE 15 Feb 01:16:06 01:23:40 49° 91° (E) 01:31:42 436.750
BEESAT 3 15 Feb 01:27:52 01:31:47 68° 243° (WSW) 01:35:41 437.485
TISAT 1 15 Feb 01:29:06 01:32:24 22° 264° (W) 01:35:43 437.305
PHONESAT 2.4 15 Feb 01:32:11 01:35:11 32° 3° (N) 01:38:11 2401.200-2431.200
Cosmos 2491 15 Feb 01:34:53 01:43:14 47° 77° (ENE) 01:51:35 435.465 / 435.565
ITUPSAT 1 15 Feb 01:36:00 01:40:41 62° 74° (ENE) 01:45:26 437.325
CUSAT 1 15 Feb 01:37:10 01:45:14 76° 279° (W) 01:53:08 437.405
BEESAT 15 Feb 01:40:38 01:45:21 72° 75° (ENE) 01:50:08 436.000
KKS-1 15 Feb 01:52:11 01:53:20 11° 64° (ENE) 01:54:28 437.445
BEESAT 2 15 Feb 02:02:34 02:06:20 42° 245° (WSW) 02:10:04 435.950
JAS-2 15 Feb 02:11:09 02:16:34 81° 103° (ESE) 02:21:44 435.910
YUBILEINY 15 Feb 02:18:32 02:26:34 43° 88° (E) 02:34:41 435.215
Gurwin Techsat 1B 15 Feb 02:22:43 02:27:56 56° 101° (E) 02:33:09 435.225
ITAMSAT 1 15 Feb 02:27:51 02:32:27 30° 97° (E) 02:37:01 435.822/435.867
SWISSCUBE 15 Feb 02:34:38 02:38:38 27° 263° (W) 02:42:42 437.505
Oscar 19 15 Feb 02:45:49 02:50:16 30° 291° (WNW) 02:54:41 437.125/150
SO-50 15 Feb 02:48:28 02:52:22 24° 110° (ESE) 02:56:20 436.795
STARS 15 Feb 02:53:14 02:56:59 28° 70° (ENE) 03:00:43 437.465
DANDE 15 Feb 02:59:31 03:06:46 36° 288° (WNW) 03:14:22 436.750
AO-7 15 Feb 03:03:24 03:09:39 23° 95° (E) 03:15:51 29.400- 29.500
AIST 2 15 Feb 03:04:32 03:08:40 76° 61° (ENE) 03:12:46 435.215
PHONESAT 2.4 15 Feb 03:09:27 03:12:42 70° 18° (NNE) 03:15:58 2401.200-2431.200
ITUPSAT 1 15 Feb 03:17:29 03:18:54 11° 268° (W) 03:20:18 437.325
CUSAT 1 15 Feb 03:24:34 03:28:31 14° 295° (WNW) 03:32:24 437.405
KKS-1 15 Feb 03:24:55 03:29:20 63° 259° (WSW) 03:33:45 437.445
Cosmos 2491 15 Feb 03:32:12 03:39:43 34° 275° (W) 03:47:16 435.465 / 435.565
JAS-2 15 Feb 04:00:08 04:00:47 10° 301° (WNW) 04:01:26 435.910
MOZHAYETS 4 15 Feb 04:00:11 04:04:43 71° 259° (W) 04:09:19
Cosmos 2504 15 Feb 04:04:05 04:12:06 45° 88° (E) 04:20:22 435.465 / 435.565
Gurwin Techsat 1B 15 Feb 04:04:09 04:07:22 17° 296° (WNW) 04:10:37 435.225
ITAMSAT 1 15 Feb 04:07:22 04:11:47 28° 292° (WNW) 04:16:11 435.822/435.867
YUBILEINY 15 Feb 04:15:24 04:23:20 37° 285° (WNW) 04:31:23 435.215
SO-50 15 Feb 04:28:10 04:32:40 36° 306° (NW) 04:37:14 436.795
STARS 15 Feb 04:29:55 04:33:18 22° 264° (W) 04:36:41 437.465
M-CUBED/EXP-1 PRIME 15 Feb 04:35:31 04:38:57 43° 105° (ESE) 04:42:37 437.505
AUBIESAT-1 15 Feb 04:40:04 04:43:31 40° 105° (ESE) 04:47:10 437.475
HORYU 2 15 Feb 04:46:12 04:50:39 66° 102° (ESE) 04:55:05 437.375
PHONESAT 2.4 15 Feb 04:47:10 04:49:44 21° 214° (SSW) 04:52:17 2401.200-2431.200
AO-7 15 Feb 04:54:41 05:02:55 67° 291° (WNW) 05:11:05 29.400- 29.500
CUBESAT XI-V 15 Feb 04:56:56 05:01:23 43° 73° (ENE) 05:05:50 437.345
JUGNU 15 Feb 05:33:11 05:35:22 12° 167° (SSE) 05:37:32 437.505
Cosmos 2504 15 Feb 05:57:40 06:05:30 37° 286° (WNW) 06:13:35 435.465 / 435.565
M-CUBED/EXP-1 PRIME 15 Feb 06:12:32 06:13:18 11° 296° (WNW) 06:14:04 437.505
AUBIESAT-1 15 Feb 06:16:27 06:17:48 12° 296° (WNW) 06:19:10 437.475
STRAND 1 15 Feb 06:21:22 06:26:09 42° 72° (ENE) 06:31:00 437.568
LilacSat-2 15 Feb 06:25:34 06:29:12 42° 99° (E) 06:32:48 437.200
HORYU 2 15 Feb 06:25:50 06:26:38 10° 296° (WNW) 06:27:25 437.375
CUTE-I 15 Feb 06:27:08 06:32:23 52° 100° (E) 06:37:36 437.470
CUBESAT XI-V 15 Feb 06:36:04 06:38:55 16° 267° (W) 06:41:48 437.345
Cubesat XI-IV 15 Feb 06:42:41 06:48:05 75° 103° (ESE) 06:53:27 437.490
BRITE-PL 15 Feb 06:45:42 06:49:56 40° 98° (E) 06:53:53 437.365/2234.400
AO-7 15 Feb 06:50:53 06:54:06 13° 310° (NW) 06:57:21 29.400- 29.500
O/OREOS (USA 219) 15 Feb 06:54:07 06:58:33 69° 108° (ESE) 07:03:03 437.305
PRISM 15 Feb 07:08:15 07:12:01 35° 72° (ENE) 07:15:50 437.425
JUGNU 15 Feb 07:19:54 07:23:37 17° 177° (S) 07:27:19 437.505
GOMX 1 15 Feb 07:20:59 07:25:06 47° 99° (E) 07:29:06 467.674
SRMSAT 15 Feb 07:21:25 07:22:41 11° 166° (SSE) 07:23:55 437.500
CANX-2 15 Feb 07:41:20 07:44:08 17° 94° (E) 07:46:54 2200.000
GONETS M04 15 Feb 07:45:28 07:52:59 34° 86° (E) 08:00:31
AO-85 15 Feb 07:51:31 07:54:49 17° 106° (ESE) 07:58:13 145.980
STRAND 1 15 Feb 08:01:54 08:05:29 19° 266° (W) 08:09:06 437.568
LilacSat-2 15 Feb 08:02:06 08:03:06 11° 293° (WNW) 08:04:05 437.200
COMPASS 1 15 Feb 08:02:12 08:04:16 13° 93° (E) 08:06:19 437.405
CUTE-I 15 Feb 08:08:27 08:11:58 18° 295° (WNW) 08:15:30 437.470
DOVE 4 15 Feb 08:09:55 08:14:05 89° 115° (ESE) 08:18:14 437.250
CINEMA 3 15 Feb 08:20:29 08:24:20 34° 98° (E) 08:28:13 145.822/145.860
AAUSAT CUBESAT 2 15 Feb 08:24:08 08:27:14 20° 95° (E) 08:30:20 437.432
Cubesat XI-IV 15 Feb 08:25:08 08:27:27 13° 298° (WNW) 08:29:46 437.490
BRITE-PL 15 Feb 08:25:30 08:28:00 15° 295° (WNW) 08:30:25 437.365/2234.400
SEEDS 15 Feb 08:25:36 08:29:34 36° 98° (E) 08:33:29 437.485
PCSat 15 Feb 08:26:35 08:29:39 15° 104° (ESE) 08:32:45 145.827
CUTE 1.7 + AOD 2 15 Feb 08:29:41 08:33:55 56° 100° (E) 08:38:08 437.475
HO-68 15 Feb 08:31:03 08:38:09 60° 102° (ESE) 08:45:13 435.675
O/OREOS (USA 219) 15 Feb 08:37:28 08:38:27 11° 304° (NW) 08:39:26 437.305
PRISM 15 Feb 08:44:54 08:47:26 16° 266° (W) 08:49:59 437.425
Oscar 11 15 Feb 08:46:43 08:49:08 15° 93° (E) 08:51:33 145.826/435.025
Cosmos 2499 15 Feb 08:47:38 08:55:34 40° 87° (E) 09:03:35 435.465 / 435.565
ANTELSAT 15 Feb 08:58:19 09:00:05 12° 66° (ENE) 09:01:51 437.575/2403.000
GOMX 1 15 Feb 09:01:11 09:02:43 12° 295° (WNW) 09:04:15 467.674
TIGRISAT 15 Feb 09:02:47 09:04:50 13° 66° (ENE) 09:06:52 435.000
SRMSAT 15 Feb 09:07:28 09:11:03 16° 176° (S) 09:14:38 437.500
JUGNU 15 Feb 09:08:33 09:11:53 15° 188° (S) 09:15:13 437.505
UWE-3 15 Feb 09:11:28 09:15:20 32° 98° (E) 09:19:17 435.000/436.395/437.385
CANX-2 15 Feb 09:16:09 09:20:02 34° 288° (WNW) 09:23:56 2200.000
CUBEBUG 2 15 Feb 09:23:15 09:27:29 66° 100° (E) 09:31:50 437.445
AO-85 15 Feb 09:29:34 09:34:48 60° 302° (WNW) 09:40:15 145.980
COMPASS 1 15 Feb 09:36:00 09:39:59 41° 287° (WNW) 09:43:58 437.405
GONETS M04 15 Feb 09:41:17 09:49:28 45° 283° (WNW) 09:57:45
UNISAT 6 15 Feb 09:47:21 09:51:27 47° 74° (ENE) 09:55:32 437.425
AIST 1 15 Feb 09:50:57 09:55:08 44° 92° (E) 09:59:20
ZACube-1 15 Feb 09:51:27 09:55:43 68° 101° (E) 10:00:05 437.345
FUNcube-1 15 Feb 09:57:16 10:01:34 76° 102° (ESE) 10:05:56 145.935
CINEMA 3 15 Feb 09:58:36 10:01:12 16° 292° (WNW) 10:03:50 145.822/145.860
AAUSAT CUBESAT 2 15 Feb 09:59:07 10:02:43 28° 289° (WNW) 10:06:17 437.432
SEEDS 15 Feb 10:02:17 10:04:57 16° 292° (WNW) 10:07:37 437.485
PCSat 15 Feb 10:07:09 10:12:29 59° 299° (WNW) 10:17:52 145.827
CUTE 1.7 + AOD 2 15 Feb 10:08:00 10:09:14 11° 295° (WNW) 10:10:29 437.475
HO-68 15 Feb 10:19:49 10:25:18 24° 299° (WNW) 10:30:47 435.675
Oscar 11 15 Feb 10:21:19 10:25:24 40° 287° (WNW) 10:29:28 145.826/435.025
POLYITAN 1 15 Feb 10:24:28 10:28:02 27° 71° (ENE) 10:31:37 437.675
DELFI C3 15 Feb 10:24:33 10:28:35 68° 285° (WNW) 10:32:36 145.870
QB50P2 15 Feb 10:24:44 10:28:22 29° 71° (ENE) 10:32:01 145.880/145.840
RS-15 15 Feb 10:25:31 10:36:18 63° 112° (ESE) 10:47:38 29.354- 29.394
ANTELSAT 15 Feb 10:32:14 10:36:22 48° 260° (W) 10:40:31 437.575/2403.000
TIGRISAT 15 Feb 10:37:02 10:41:08 44° 261° (W) 10:45:13 435.000
Cosmos 2499 15 Feb 10:40:23 10:48:32 42° 284° (WNW) 10:56:49 435.465 / 435.565
AISAT 15 Feb 10:43:00 10:44:26 11° 92° (E) 10:45:52 437.250
DX 1 15 Feb 10:44:44 10:46:27 12° 93° (E) 10:48:09 434.975-435.025
UWE-3 15 Feb 10:48:38 10:51:34 18° 291° (WNW) 10:54:33 435.000/436.395/437.385
DUCHIFAT 1 15 Feb 10:51:45 10:55:50 53° 75° (ENE) 10:59:56 145.980
POPSAT HIP 1 15 Feb 10:52:16 10:56:26 58° 75° (ENE) 11:00:34 437.405
NANOSAT C BR1 15 Feb 10:53:04 10:57:13 58° 75° (ENE) 11:01:21 145.865
HUMSAT D 15 Feb 10:53:41 10:57:55 80° 283° (WNW) 11:02:10 437.325/437.525
SRMSAT 15 Feb 10:56:01 10:59:28 16° 186° (S) 11:02:56 437.500
50 SAT 15 Feb 10:59:11 11:02:05 20° 96° (E) 11:04:59 437.505
QB50P1 15 Feb 11:04:14 11:08:28 84° 75° (ENE) 11:12:42 145.935-145.965
AO-85 15 Feb 11:15:49 11:16:29 10° 321° (NW) 11:17:08 145.980
SO-50 15 Feb 11:23:57 11:25:50 12° 43° (NE) 11:27:42 436.795
UNISAT 6 15 Feb 11:26:48 11:28:24 12° 268° (W) 11:30:00 437.425
ESTCUBE 1 15 Feb 11:26:54 11:31:15 44° 99° (E) 11:35:33 437.505/2401.250
BUGSAT 1 15 Feb 11:27:02 11:31:12 73° 78° (ENE) 11:35:21 437.445
AIST 1 15 Feb 11:30:56 11:32:58 13° 288° (WNW) 11:35:00
SPROUT 15 Feb 11:54:48 11:58:06 22° 95° (E) 12:01:24 437.525
UKube-1 15 Feb 11:55:27 11:59:46 74° 102° (ESE) 12:04:03 .
VELOX 1 15 Feb 11:58:59 12:03:24 89° 312° (NW) 12:07:48 145.980
POLYITAN 1 15 Feb 12:00:42 12:03:49 20° 265° (W) 12:06:57 437.675
QB50P2 15 Feb 12:01:06 12:04:10 19° 265° (W) 12:07:14 145.880/145.840
DANDE 15 Feb 12:03:26 12:08:08 23° 67° (ENE) 12:11:54 436.750
AISAT 15 Feb 12:16:56 12:21:12 52° 286° (WNW) 12:25:27 437.250
CUBEBUG 1 15 Feb 12:18:36 12:22:53 61° 285° (WNW) 12:27:08 437.445
DX 1 15 Feb 12:18:42 12:22:52 48° 287° (WNW) 12:27:02 434.975-435.025
JAS-2 15 Feb 12:19:03 12:25:17 30° 68° (ENE) 12:31:01 435.910
CUSAT 1 15 Feb 12:20:09 12:24:57 62° 78° (ENE) 12:28:32 437.405
Oscar 19 15 Feb 12:20:37 12:25:03 30° 69° (ENE) 12:29:29 437.125/150
DUCHIFAT 1 15 Feb 12:31:28 12:31:49 10° 268° (W) 12:32:11 145.980
50 SAT 15 Feb 12:33:01 12:35:59 22° 289° (WNW) 12:38:57 437.505
YUBILEINY 15 Feb 12:33:51 12:39:12 17° 66° (ENE) 12:44:31 435.215
ISS 15 Feb 12:38:32 12:41:00 20° 130° (SE) 12:43:30 145.825
RS-15 15 Feb 12:39:10 12:49:19 38° 315° (NW) 13:00:02 29.354- 29.394
SO-50 15 Feb 13:02:14 13:07:01 87° 246° (WSW) 13:11:38 436.795
ESTCUBE 1 15 Feb 13:05:02 13:07:39 15° 294° (WNW) 13:10:16 437.505/2401.250
TISAT 1 15 Feb 13:15:02 13:19:11 68° 101° (E) 13:23:19 437.305
